Regional Weather Roundup
Issued by NWS Northern Indiana

Home | Current Version | Previous Version | Text Only | Print | Product List | Glossary Off
Versions: 1 2 3 4 5 6 7 8 9 10 11 12 13 14 15 16 17 18 19 20 21 22 23 24 25 26 27 28 29 30 31 32 33 34 35 36 37 38 39 40 41 42 43 44 45 46 47 48 49 50

000
ASUS43 KIWX 052300
RWRIWX

KIWX WEATHER ROUNDUP
NATIONAL WEATHER SERVICE NORTHERN INDIANA
700 PM EDT SUN JUL 05 2015

NOTE: "FAIR" INDICATES FEW OR NO CLOUDS BELOW 12,000 FEET WITH NO
SIGNIFICANT WEATHER AND/OR OBSTRUCTIONS TO VISIBILITY.

* THESE STATIONS ARE NOT UNDER NWS QUALITY CONTROL. THEY ALSO MAY NOT
  REPORT WEATHER SUCH AS PRECIPITATION OR FOG.

INZ001>027-060000-
NORTHERN INDIANA

CITY           SKY/WX    TMP DP  RH WIND       PRES   REMARKS
GARY*          MOSUNNY  N/A N/A N/A SE8       30.05S
SOUTH BEND     SUNNY     82  59  45 VRB6      30.06F
GOSHEN         MOSUNNY   81  61  50 S5        30.07S
ANGOLA*          N/A     82  75  78 E5        30.08S
FORT WAYNE     PTSUNNY   78  62  57 CALM      30.08S
PERU/GRISSOM   MOSUNNY   81  63  53 S2        30.05F

$$
INZ028>050-060000-
CENTRAL INDIANA

CITY           SKY/WX    TMP DP  RH WIND       PRES   REMARKS
LAFAYETTE      SUNNY     80  60  50 S3        30.04F
KOKOMO*        PTSUNNY   81  61  50 SE6       30.05F
MUNCIE*        MOSUNNY   80  60  50 VRB3      30.07S
INDIANAPOLIS   PTSUNNY   77  61  57 SE9       30.05F

$$
MIZ043>046-050>051-056>058-064>065-071>073-077>080-060000-
SOUTHWEST LOWER MICHIGAN

CITY           SKY/WX    TMP DP  RH WIND       PRES   REMARKS
BATTLE CREEK   SUNNY     82  60  47 S8        30.08F
BENTON HARBOR  SUNNY     79  60  52 VRB3      30.05F
COLDWATER*     MOSUNNY   79  59  49 CALM      30.08S
HILLSDALE*     PTSUNNY   79  58  48 SE7       30.10S
HOLLAND        SUNNY     80  60  50 W7        30.06F
GRAND RAPIDS   MOSUNNY   81  62  52 S9        30.06S
KALAMAZOO      SUNNY     81  61  50 S5        30.07F
STURGIS*       MOSUNNY   81  59  47 S7        30.07F
THREE RIVERS*  FAIR      80  60  51 S5        30.07F

$$
OHZ001>008-015>018-024>025-060000-
NORTHWEST OHIO

CITY           SKY/WX    TMP DP  RH WIND       PRES   REMARKS
DEFIANCE       PTSUNNY   81  59  47 E3        30.07F
FINDLAY        PTSUNNY   79  58  48 E7        30.07S
TOLEDO EXPRESS PTSUNNY   80  55  42 NE9       30.08R
TOLEDO METCALF PTSUNNY   78  53  41 NE6       30.09S
LIMA           CLOUDY    77  60  55 SE5       30.08F

$$
AND FOR LAKE MICHIGAN COASTAL AND OPEN LAKE BUOY OBSERVATIONS

STATION/POSITION TEMP    WIND        PRES    VSBY  WAVE
                 AIR SEA DIR/SP/G                  HT/PER
                 (F)     (DEG/KT/KT) (MB)    (MI)  (FT/S)
CALUMET HARBOR    75      90/ 10/ 13   N/A
MICHIGAN CITY     70      40/ 11/ 12   N/A
BURNS HARBOR      71      20/  4/  6 1017.9
SAINT JOSEPH      76     350/  5/  6 1018.3S
4 MI NW BRIDGMAN  70 69                N/A           0
MICHIGAN CITY     71 69   70/  6/  6   N/A           1

$$
&&


USA.gov is the U.S. government's official web portal to all federal, state and local government web resources and services.